Location: Civry
(47.2902°N, 4.6156°E)
Time: 01:16:05
(UTC+00:00)

ADEOS Rocket - Pass Details

Date: 09 April 2020
Orbit: 858 x 1307 km, 98.7° (Epoch: 30 May)

Event Time Altitude Azimuth Distance (km) Brightness Sun altitude
Rises 19:00:15 0° 10° (N) 3,876 6.3 -6.9°
Reaches altitude 10° 19:02:57 10° 6° (N) 2,850 5.6 -7.4°
Maximum altitude 19:09:01 49° 294° (WNW) 1,223 4.1 -8.3°
Drops below altitude 10° 19:14:32 10° 221° (SW) 2,586 5.5 -9.2°
Sets 19:16:54 0° 215° (SW) 3,486 6.1 -9.5°
